Location: Kosice
(0.0000°N, 21.2500°E)
Time: 17:59:28
(UTC+01:00)

Meteor 2-15 - Pass Details

Date: 24 January 2021
Orbit: 936 x 955 km, 82.5° (Epoch: 01 March)

Event Time Altitude Azimuth Distance (km) Brightness Sun altitude
Rises 18:50:22 0° 4° (N) 3,612 7.2 -14.9°
Reaches altitude 10° 18:52:53 10° 7° (N) 2,668 6.5 -15.5°
Maximum altitude 18:58:54 60° 87° (E) 1,076 4.4 -16.9°
Drops below altitude 10° 19:04:53 10° 165° (SSE) 2,666 6.9 -18.3°
Sets 19:07:24 0° 169° (S) 3,610 7.6 -18.9°
